GFSWCAN_850_spd_021.txt.gz
Wind_Speed
26 26 25 24 24 24 24 23 21 20 19 19 17 18 17 14 12 12 16 12 15 13 27 27 33 28 23 20 10 6 7 4 5 3 3 3 4 4 6 6 4 4 4 6 4 3 4 4 5 7 7 12 12 13
24 24 24 25 25 24 24 23 22 21 20 21 18 18 17 16 14 14 18 11 16 20 21 34 36 31 29 27 25 11 6 3 3 4 4 2 3 2 4 3 6 3 3 5 9 3 1 18 11 12 21 24 17 18
24 24 24 24 25 25 24 23 23 22 21 21 21 18 15 14 12 13 17 18 16 16 26 20 17 19 20 25 24 22 20 18 7 9 3 2 6 3 4 1 3 3 9 5 7 8 10 6 5 27 25 26 20 18
23 24 24 25 25 24 24 24 24 23 21 20 19 17 16 15 14 14 15 14 14 9 5 15 15 28 20 21 21 32 32 21 14 18 8 2 3 5 3 3 2 4 9 7 7 8 25 19 21 27 25 19 19 21
24 24 23 25 25 25 25 26 26 24 24 24 22 19 17 16 16 17 19 19 12 12 5 18 40 5 10 12 22 27 33 26 13 6 5 2 3 4 2 3 1 3 3 2 3 13 8 18 21 20 26 23 23 23
24 24 24 25 26 27 28 30 29 27 26 24 22 20 17 15 13 14 5 1 4 8 6 4 16 15 12 9 17 20 24 19 18 4 2 3 6 5 2 1 3 8 14 14 4 16 29 22 40 28 30 23 22 25
22 24 26 27 28 30 33 34 32 28 25 24 21 18 16 15 15 8 7 10 17 15 5 5 6 7 16 2 10 21 17 14 4 2 1 3 4 4 2 3 2 16 6 17 19 17 23 22 20 34 29 27 27 27
22 24 28 30 32 33 34 35 33 28 25 20 17 15 16 16 17 15 9 7 7 7 4 3 5 5 11 5 3 9 8 7 4 2 3 2 6 3 2 10 11 12 9 20 24 28 21 19 16 22 27 30 31 29
22 26 29 31 33 33 36 36 34 30 25 14 15 19 13 5 3 6 7 15 11 5 4 3 2 3 4 2 4 6 6 2 5 2 1 2 2 2 4 3 4 10 12 16 21 25 20 21 16 21 25 27 31 27
24 26 29 32 33 33 36 36 34 32 16 15 13 5 4 6 12 14 2 1 1 5 5 3 4 3 5 2 2 2 4 2 1 2 2 3 3 9 10 4 8 11 20 19 16 13 16 18 24 24 24 21 20 23
25 27 29 32 30 33 37 36 33 30 13 11 6 5 13 14 6 2 3 2 3 3 7 7 13 6 7 3 2 1 2 2 1 1 2 2 2 6 12 9 11 12 16 10 11 12 16 19 15 16 20 18 17 14
25 26 29 30 27 34 36 31 27 22 12 13 15 11 9 5 4 3 2 2 2 3 5 3 4 5 3 1 3 2 1 4 3 3 3 2 3 10 18 18 19 17 15 11 14 20 17 15 14 13 13 14 15 13
24 25 27 27 26 34 34 23 19 20 15 8 7 5 5 3 4 6 6 3 5 3 7 8 5 4 4 4 3 0 4 4 1 3 3 2 7 5 5 3 8 10 7 8 10 13 6 10 11 13 13 9 8 9
25 24 27 23 28 32 25 17 16 17 9 4 5 8 5 5 3 6 11 11 8 12 18 11 3 2 4 1 1 3 4 5 4 4 3 4 14 6 8 18 10 4 9 14 13 17 23 20 20 15 12 13 12 15
25 23 24 20 29 26 16 6 12 13 5 5 6 4 6 17 20 22 25 27 34 32 3 3 2 3 3 4 5 5 5 5 5 4 3 15 19 15 13 14 17 21 21 20 18 21 18 16 17 18 20 18 15 15
23 21 15 24 24 12 12 9 9 6 5 5 3 7 17 16 18 28 28 26 35 30 13 12 6 5 8 4 6 7 4 4 3 2 13 16 17 21 20 22 16 17 16 19 18 18 16 16 16 15 15 15 14 13
18 10 19 21 18 7 14 17 8 4 7 6 8 21 22 14 16 25 26 26 26 30 12 5 7 8 3 5 5 2 0 3 8 10 11 12 8 11 18 22 24 22 16 19 24 24 20 26 18 18 16 19 14 11
17 16 15 16 10 9 13 10 7 5 8 12 11 16 20 24 23 25 28 31 23 22 16 7 7 8 5 5 4 3 3 6 8 13 16 16 16 16 19 20 20 22 20 23 22 23 21 23 26 23 19 20 15 18
14 12 13 13 13 8 5 7 6 5 13 18 17 21 22 23 27 29 29 32 31 23 18 8 7 6 7 11 16 21 24 20 15 14 15 17 17 13 11 12 16 19 20 19 20 22 22 22 20 18 22 19 20 19
11 12 12 15 15 8 4 4 8 5 5 10 14 19 22 20 22 29 30 29 22 22 16 7 6 15 19 24 24 22 17 15 20 21 18 17 16 16 15 12 12 14 17 19 20 21 21 22 21 20 22 19 18 19
12 9 13 11 7 8 4 6 6 5 6 6 7 12 10 17 23 25 24 18 22 15 12 16 22 27 27 30 33 33 26 16 21 25 22 10 11 9 13 12 13 14 17 19 20 21 21 19 18 20 18 15 18 17
8 6 8 7 5 3 2 4 2 5 4 2 4 6 5 7 9 12 19 18 11 15 23 22 19 19 29 29 28 30 30 25 24 23 23 27 28 25 26 23 18 18 18 18 18 21 20 19 17 17 16 13 16 16
8 4 5 3 2 2 2 2 3 3 2 0 2 2 2 3 7 10 6 15 19 22 23 20 16 23 23 22 25 27 24 27 26 23 23 23 22 22 22 24 20 24 26 24 20 18 17 16 19 20 15 15 14 17
5 2 2 2 3 3 4 4 4 4 4 1 0 2 4 4 3 4 4 17 21 24 25 23 25 24 23 22 20 22 22 23 26 25 23 27 15 21 19 18 16 20 22 21 19 19 17 19 18 19 21 17 16 17
3 2 3 5 3 4 3 2 1 3 4 5 3 4 4 2 2 3 3 12 18 18 18 19 21 18 15 16 17 20 21 19 19 24 26 22 17 16 19 20 20 16 21 20 18 18 20 18 19 16 17 19 18 15
3 2 2 8 11 8 7 6 6 3 3 5 6 5 4 2 3 4 3 8 8 12 15 18 16 13 15 21 20 19 20 18 16 18 25 15 15 20 21 21 20 19 18 14 15 16 15 17 18 17 16 15 16 14
5 2 8 8 5 6 7 6 7 9 5 5 4 3 3 4 4 3 5 7 12 14 13 11 12 16 17 19 17 17 16 18 18 13 17 19 16 13 18 20 18 15 15 12 13 12 13 16 15 14 14 15 17 14
4 6 4 5 5 4 9 11 8 7 9 13 5 6 4 3 1 3 5 10 9 10 13 15 9 14 16 17 15 16 15 15 16 16 11 17 20 19 16 15 14 13 15 16 13 9 12 13 12 12 14 15 17 14
7 8 7 4 7 8 6 5 8 7 9 9 3 4 3 2 1 5 7 11 14 11 10 14 14 15 15 15 16 15 14 13 15 20 19 17 19 18 17 16 15 15 13 14 14 9 14 14 13 12 12 13 13 12
10 9 4 1 3 4 7 7 11 8 9 12 11 11 7 4 3 5 10 14 15 16 15 14 13 13 13 14 13 14 13 12 14 17 15 13 14 12 13 15 14 16 13 15 14 12 13 12 13 12 13 13 15 14
3 4 5 3 2 12 10 9 8 9 8 9 7 8 5 3 0 2 8 12 12 12 12 15 13 11 11 12 12 11 9 9 13 21 19 8 9 8 12 14 12 14 12 14 13 13 13 12 12 12 13 13 14 15
3 7 9 0 8 9 7 7 8 6 4 3 7 5 4 1 2 1 5 9 10 10 11 12 12 10 10 9 10 9 7 5 15 15 21 15 13 10 11 13 12 13 11 12 10 10 10 11 12 13 14 14 15 15
6 5 5 6 3 8 10 5 2 5 7 5 4 7 5 3 5 5 7 11 7 6 8 9 9 9 10 10 10 8 5 9 12 10 15 16 15 14 12 11 15 14 12 10 11 11 12 12 12 12 13 13 14 15

GFSWCAN_850_spd_024.txt.gz
Wind_Speed
24 24 25 26 26 26 26 25 25 24 23 21 20 19 19 18 16 14 14 10 15 15 26 27 27 24 20 15 7 8 9 1 2 4 4 4 4 4 3 6 7 4 4 3 2 6 7 28 20 8 7 7 18 15
23 24 25 25 26 26 26 26 26 26 25 22 21 19 16 15 13 12 17 10 13 18 25 34 35 35 34 37 24 12 8 3 3 2 1 4 3 3 2 4 10 7 5 6 6 5 11 31 15 13 23 25 12 19
22 23 24 26 27 27 27 27 28 27 25 23 23 21 19 17 15 14 18 16 14 14 25 19 16 14 15 18 17 19 15 17 11 11 1 3 7 3 4 5 4 7 4 3 5 2 12 29 30 21 23 27 22 22
21 23 25 26 27 28 30 31 31 31 29 27 25 23 21 19 17 16 19 17 18 9 5 12 16 32 19 21 24 28 35 15 10 10 4 3 4 8 1 3 4 3 6 4 2 5 14 22 29 17 21 24 24 23
20 22 24 26 29 31 33 35 35 35 32 29 26 24 22 18 17 19 20 10 8 13 5 16 34 3 8 9 25 31 27 34 20 5 3 4 4 6 2 4 2 2 2 5 3 6 3 7 22 21 27 25 24 25
20 22 25 28 31 32 35 36 38 37 34 30 27 23 20 17 13 16 6 7 6 1 6 4 9 11 8 10 11 15 33 27 17 9 5 7 7 5 3 1 3 7 4 9 6 5 8 17 32 32 33 30 27 25
20 23 26 29 32 35 36 37 40 41 35 29 25 21 15 14 16 11 8 10 12 13 4 4 4 8 14 9 7 14 17 16 13 12 4 4 6 4 3 2 6 14 8 19 15 12 13 21 17 30 34 32 29 28
22 24 27 30 33 35 36 39 43 42 37 26 17 15 17 19 21 21 15 13 15 14 5 3 4 5 9 8 6 2 8 9 1 3 4 3 7 3 2 8 16 13 26 20 15 8 12 17 28 27 28 31 30 27
25 26 28 30 32 34 34 40 42 41 34 17 17 17 14 5 6 8 16 10 9 8 3 3 2 3 9 3 2 2 4 2 3 2 1 3 3 2 5 10 12 21 14 19 22 19 14 19 20 20 24 26 20 24
28 28 28 30 32 32 34 39 40 38 31 21 10 6 4 5 19 15 3 2 2 5 6 3 4 3 4 2 2 1 1 2 0 2 5 2 3 11 19 16 19 24 21 24 23 18 18 22 23 23 23 23 15 15
28 28 28 29 31 30 33 37 36 34 31 20 12 4 15 20 6 2 2 4 4 3 5 6 9 4 3 2 2 1 2 3 2 2 2 4 5 8 16 13 16 12 11 16 18 16 14 18 18 18 15 11 7 7
27 27 27 28 29 26 30 33 28 29 27 21 17 16 8 6 4 2 1 2 3 3 4 4 7 10 4 0 4 3 2 1 3 2 2 3 4 19 19 22 26 22 20 16 13 13 11 11 12 13 10 8 11 8
27 26 26 26 24 26 26 22 21 26 26 12 8 7 6 6 6 5 6 3 6 4 5 7 1 2 4 3 3 2 2 3 3 3 2 3 8 8 5 8 10 11 14 14 11 13 14 12 13 13 15 11 13 16
25 24 22 22 21 23 17 15 21 24 12 7 7 8 4 6 5 4 10 8 22 14 14 5 2 1 2 2 2 5 5 4 4 5 7 7 13 9 12 12 14 19 16 16 21 25 27 23 19 16 17 18 19 18
22 20 16 17 20 15 14 16 19 19 5 6 8 6 5 13 21 26 28 25 32 29 16 4 6 7 5 5 5 5 5 5 5 4 6 18 22 15 19 23 22 30 25 23 22 21 21 23 24 21 18 18 20 18
19 15 17 18 14 8 12 13 12 9 5 3 1 4 18 12 16 27 29 29 37 33 7 13 5 5 9 4 6 7 4 5 4 3 14 16 22 20 25 27 27 22 27 33 30 27 32 31 27 27 19 18 21 19
14 12 15 16 7 9 12 13 9 8 5 7 9 18 14 15 16 23 27 26 23 28 11 6 7 8 3 4 5 4 6 6 12 19 21 20 16 14 26 25 24 26 30 28 27 28 31 28 28 27 29 25 22 26
12 11 12 13 8 12 18 13 6 4 5 11 10 22 23 26 26 27 33 40 23 23 17 6 7 8 6 5 6 2 11 11 11 19 22 20 20 21 22 24 19 23 25 25 24 24 25 26 28 27 24 20 20 19
12 11 13 15 12 9 7 8 8 5 10 12 21 26 26 26 31 34 34 36 35 30 17 7 7 5 5 8 9 14 19 25 21 20 19 20 18 15 17 20 22 22 22 23 23 24 22 26 22 22 19 20 20 20
10 10 11 13 12 7 6 6 8 5 6 9 14 20 29 28 29 31 34 32 26 24 17 6 6 12 18 30 29 29 20 28 25 28 26 16 14 11 10 15 19 19 21 22 23 21 20 21 22 20 22 20 15 17
6 7 11 12 9 8 4 5 4 4 5 5 4 10 11 20 29 28 26 24 25 23 11 20 26 28 30 29 29 26 27 29 29 27 22 25 23 21 23 26 27 27 26 24 24 22 20 20 20 16 18 16 16 17
6 7 6 8 5 4 2 3 4 4 2 3 1 3 4 8 8 16 23 23 23 18 25 24 23 23 26 28 26 25 24 26 28 28 25 18 20 24 26 26 27 28 27 24 22 23 23 19 16 19 23 20 19 19
4 3 4 4 2 2 1 2 2 2 0 0 4 5 4 4 5 10 6 16 15 24 24 24 21 22 19 18 20 23 26 24 27 28 25 19 21 22 22 22 21 22 22 22 18 18 17 14 13 12 13 14 18 14
4 2 1 1 1 4 4 3 4 3 3 4 4 3 2 2 3 4 3 6 14 15 21 21 17 17 16 17 20 21 23 24 21 20 23 19 22 21 20 21 20 20 18 14 17 17 16 16 15 13 13 15 16 17
1 2 4 3 4 5 3 5 2 4 3 2 3 3 1 1 2 3 1 7 13 16 20 18 18 16 15 13 12 17 19 21 19 18 18 18 18 17 17 15 18 18 16 15 16 16 17 18 18 16 16 15 17 17
4 3 4 6 4 3 4 4 3 2 1 2 3 7 3 3 3 2 2 9 13 15 16 16 18 12 14 10 11 15 17 20 15 18 16 15 17 20 20 19 17 17 16 15 13 14 16 14 15 15 14 14 14 16
3 3 3 3 2 4 6 6 6 5 5 5 3 3 3 3 3 3 7 9 11 11 12 12 8 11 12 11 8 10 14 19 17 15 13 10 10 12 14 16 17 15 13 12 11 13 12 10 11 13 14 14 14 14
2 3 2 3 5 4 3 5 4 4 4 8 4 5 2 2 3 2 6 11 12 12 10 10 7 8 9 8 7 10 13 15 16 15 6 10 9 8 10 11 11 9 11 16 9 9 9 8 7 8 10 13 13 11
4 4 3 5 4 0 2 2 2 1 5 2 3 2 4 5 4 1 8 9 10 8 8 2 6 6 7 7 9 11 13 17 20 24 15 12 13 12 8 10 9 10 13 12 5 9 10 10 10 10 11 13 13 11
6 12 5 5 4 3 3 5 7 7 10 12 12 10 8 7 4 1 4 3 5 7 9 8 6 6 7 7 8 9 12 15 20 23 13 9 9 7 7 9 8 7 9 12 10 11 10 9 10 10 11 11 11 12
2 17 6 5 2 8 12 11 11 10 9 10 10 12 10 8 6 3 2 4 5 6 5 7 5 5 4 6 6 7 7 10 16 18 18 13 9 5 10 11 6 4 8 9 11 10 9 8 9 9 10 11 13 14
6 2 1 3 5 17 16 15 14 10 10 16 9 6 5 4 3 5 0 5 6 6 4 4 6 6 6 9 10 6 7 8 11 12 14 15 14 14 13 15 8 6 10 10 9 8 7 9 10 10 10 12 13 14
4 1 3 4 6 9 12 11 11 7 6 7 6 7 6 4 2 3 3 5 8 4 2 3 6 7 8 10 10 5 7 6 9 10 10 14 12 13 11 11 14 8 7 8 6 9 9 9 9 10 11 11 13 13

GFSWCAN_850_spd_030.txt.gz
Wind_Speed
22 23 23 24 25 26 28 29 30 30 31 30 29 27 26 22 19 18 21 15 14 12 23 26 22 19 18 12 4 4 7 2 1 1 2 3 4 3 4 5 5 8 8 5 7 6 18 2 7 4 4 14 18 24
23 25 24 25 28 29 31 33 34 34 34 31 29 28 27 23 21 18 21 20 14 20 25 29 35 38 35 33 21 9 7 5 2 1 2 2 3 2 4 4 3 8 9 4 10 7 6 12 13 14 15 16 18 24
24 25 27 27 30 33 35 36 37 37 36 34 33 31 28 23 20 18 24 20 18 16 27 16 14 9 9 18 31 16 12 12 10 13 4 3 7 3 3 5 4 6 6 6 9 9 9 15 8 8 9 11 14 14
25 26 29 31 32 34 37 39 39 39 39 37 38 34 25 20 20 16 21 22 19 8 5 10 10 24 18 15 18 27 34 11 15 16 8 4 3 6 3 5 5 7 9 7 8 17 4 8 4 4 6 1 3 9
27 29 30 32 35 36 38 40 40 41 41 40 39 34 25 19 18 17 19 23 23 15 4 15 33 4 4 8 18 22 27 34 21 4 4 3 4 4 4 6 11 8 10 6 9 12 7 3 3 6 2 8 11 21
30 32 33 33 35 36 36 39 41 42 41 43 40 35 22 13 12 12 6 3 5 16 4 3 8 8 6 6 10 20 25 24 16 6 5 7 10 6 4 6 11 23 25 30 16 27 19 10 7 9 7 16 18 22
33 33 34 35 35 35 36 38 40 40 42 41 41 29 19 12 12 11 6 11 7 7 3 4 4 5 9 4 5 14 18 13 14 7 7 9 12 13 4 13 28 30 36 31 25 25 9 9 5 15 17 24 26 25
33 33 34 34 34 34 35 37 38 39 39 40 34 24 13 4 5 13 20 21 11 9 3 2 4 6 6 3 2 6 8 12 10 7 6 4 4 6 5 13 36 41 37 27 21 24 17 20 19 18 22 26 29 27
32 33 32 32 32 32 33 34 34 36 38 37 25 10 7 7 4 6 5 4 17 4 1 2 3 3 9 3 4 3 4 3 4 3 3 5 2 4 13 20 28 10 18 12 21 24 25 25 28 27 28 28 27 24
32 32 31 30 29 29 30 30 32 36 39 28 12 6 4 11 8 5 4 3 2 4 3 2 3 3 4 4 3 5 3 2 2 2 8 2 3 22 21 20 26 16 25 33 25 17 22 29 25 31 30 31 24 21
31 29 28 27 26 26 25 25 31 37 35 20 11 4 12 8 2 1 3 2 2 2 4 5 5 3 3 2 2 4 3 3 2 3 5 4 6 12 19 17 28 31 34 36 30 26 26 26 24 25 25 24 22 21
28 26 24 23 23 22 20 25 31 33 26 15 13 9 9 6 4 3 3 1 2 2 5 4 6 7 4 2 3 3 2 2 3 8 4 5 10 31 39 39 39 36 32 30 24 16 22 24 25 24 23 20 19 15
25 22 21 20 20 17 22 25 29 31 20 11 10 5 6 8 6 7 9 4 5 9 4 7 2 3 2 2 3 2 4 4 5 4 5 6 25 35 38 42 48 39 39 32 29 29 28 27 29 29 27 27 26 26
22 19 17 18 14 18 20 23 24 26 10 7 8 7 5 5 6 3 7 7 14 19 20 4 2 3 4 4 3 5 4 4 5 5 10 11 25 28 37 38 39 36 40 40 40 44 39 34 34 32 29 31 31 33
20 14 16 13 14 17 19 17 16 19 11 8 10 7 5 12 16 17 18 13 21 18 9 3 5 5 3 4 4 5 6 5 5 6 8 21 23 22 35 40 42 44 40 35 33 33 34 37 34 32 31 30 28 28
16 11 15 13 13 14 14 13 15 12 7 8 11 7 19 10 23 29 26 25 35 22 6 9 5 5 7 4 6 8 4 7 6 6 16 16 23 27 31 32 31 32 33 33 34 34 33 31 28 29 31 32 30 27
12 13 11 10 12 14 13 10 12 10 8 7 7 20 17 12 13 21 25 27 25 27 4 5 7 7 4 5 7 6 5 5 17 20 21 19 19 23 27 29 31 31 31 32 31 31 30 29 26 26 29 29 29 30
12 10 10 9 7 12 17 17 7 8 7 10 6 18 22 29 29 27 34 39 18 13 10 5 8 8 5 6 5 5 10 14 17 19 19 17 17 21 23 25 26 26 27 27 27 28 29 29 28 27 25 24 25 26
10 10 9 8 7 7 5 8 7 5 4 6 15 17 20 24 31 30 30 32 30 22 8 6 6 3 2 3 7 16 21 19 14 19 19 18 17 18 20 22 23 23 24 25 25 27 27 26 25 24 24 22 24 23
6 8 10 11 8 3 3 4 4 4 2 4 13 22 20 20 26 29 31 28 20 15 14 5 3 3 4 12 15 17 17 14 10 18 21 20 20 20 22 22 23 24 24 23 22 20 20 20 20 20 19 17 16 18
5 6 8 9 7 6 3 2 2 2 3 4 6 2 6 12 18 24 24 21 15 7 7 9 12 14 16 19 23 25 21 15 12 12 13 16 17 18 19 19 18 19 21 21 20 19 18 17 14 12 12 14 15 15
4 5 5 5 4 4 2 4 2 1 0 1 2 1 2 3 5 7 11 13 7 9 6 6 10 12 14 17 18 19 18 14 11 12 12 11 14 15 16 16 17 19 20 19 19 18 17 15 12 9 7 9 9 12
3 3 3 4 3 4 2 5 2 2 2 1 1 3 3 3 3 5 4 7 7 13 6 6 7 7 10 11 12 12 13 15 15 7 8 9 10 10 11 12 14 15 16 16 17 18 16 13 10 6 8 9 9 11
2 2 3 3 5 3 4 3 2 0 1 2 2 2 2 2 2 4 1 3 8 11 8 1 1 2 7 10 13 12 12 14 15 9 6 7 9 10 10 10 10 11 13 14 16 16 14 13 12 13 13 12 13 12
1 3 3 3 3 3 4 6 5 3 2 1 2 1 1 2 2 2 1 3 7 10 9 6 7 7 6 7 10 11 10 9 11 10 6 7 8 7 6 7 8 7 7 10 13 13 12 12 13 12 11 11 11 11
3 2 1 2 2 2 2 3 3 3 2 2 2 1 1 3 2 1 2 5 8 11 11 14 11 9 5 5 9 9 8 8 10 11 6 5 5 6 6 7 7 7 4 6 5 6 9 10 11 12 11 9 7 7
1 1 0 1 1 1 1 1 2 2 2 2 0 1 1 2 1 3 3 4 9 10 13 12 7 7 8 7 7 7 9 12 11 7 3 3 5 6 8 10 9 7 5 4 3 5 8 8 8 8 9 9 6 6
1 3 2 1 1 1 1 1 1 1 2 2 2 1 3 3 3 2 2 6 9 11 10 9 8 6 7 7 6 7 9 12 15 7 4 2 4 5 6 8 8 4 4 5 6 7 7 6 5 7 8 7 7 8
4 5 4 2 2 3 4 4 4 3 3 4 4 4 4 5 5 6 6 9 11 9 8 10 12 10 8 7 7 7 8 11 16 14 10 8 10 12 14 12 8 4 2 3 4 5 5 5 6 6 7 9 10 10
4 9 4 3 4 5 5 7 6 6 7 7 5 3 5 7 7 9 10 10 9 9 8 9 9 10 9 8 10 9 6 7 11 14 12 10 10 12 15 12 11 7 2 2 3 3 4 6 7 8 9 9 9 8
3 7 4 5 5 5 9 12 11 11 10 10 9 7 6 5 9 13 14 12 9 9 8 8 7 8 9 9 10 10 5 3 6 9 9 8 10 10 12 11 8 8 6 3 1 2 4 7 8 8 8 9 9 8
5 8 5 3 3 4 6 10 9 8 7 11 9 10 7 5 4 6 12 14 12 9 7 6 6 9 9 8 10 9 6 3 3 5 6 7 8 9 8 9 10 10 7 3 2 3 4 6 7 7 8 9 9 10
3 5 5 3 2 4 6 7 6 4 5 5 7 13 14 6 5 5 5 8 11 10 6 5 6 6 7 7 11 9 6 5 4 5 6 8 10 10 9 7 8 9 9 6 7 7 7 7 7 9 10 7 8 10

GFSWCAN_850_spd_033.txt.gz
Wind_Speed
23 24 26 26 27 29 31 31 32 34 33 32 31 30 28 27 25 18 24 21 16 10 22 21 20 16 11 9 4 3 8 2 2 3 2 4 4 3 4 7 5 7 7 7 11 10 20 7 17 13 4 8 14 18
23 24 26 29 29 31 32 34 35 36 34 33 33 31 30 31 24 19 22 22 20 19 20 25 28 28 29 28 19 8 9 4 4 3 2 2 4 3 4 4 6 8 11 7 10 10 12 14 19 25 13 20 22 21
25 26 28 30 32 34 34 36 36 36 36 36 34 32 36 29 22 17 19 20 16 15 24 16 11 5 9 16 25 13 10 13 10 8 3 3 6 4 5 9 14 8 12 10 15 20 23 33 36 32 21 22 22 21
28 29 31 33 33 36 36 36 36 36 36 36 34 38 35 24 17 15 14 16 14 4 4 9 7 20 16 11 18 29 24 7 10 12 8 4 3 9 5 9 12 11 8 9 16 20 24 33 34 32 29 25 26 24
31 32 32 34 34 34 36 36 36 36 36 35 37 38 28 16 9 11 12 14 15 12 4 12 27 2 5 5 18 21 26 27 20 5 5 4 4 5 8 8 15 19 21 13 13 18 17 23 24 24 22 26 20 22
31 32 34 34 35 34 34 35 34 34 34 34 37 34 19 9 6 6 2 3 8 11 3 3 7 5 7 6 9 18 22 18 16 7 7 9 22 7 4 7 18 30 33 37 22 28 25 27 26 24 22 17 17 18
32 33 34 34 33 33 32 32 32 32 32 34 36 24 9 6 3 2 1 4 7 5 2 4 5 4 8 6 5 12 15 12 12 7 7 7 8 12 4 14 32 37 32 33 27 21 27 32 21 17 22 15 18 14
32 33 33 32 31 30 29 28 28 30 33 34 23 11 9 14 9 3 9 12 4 2 1 2 4 6 5 4 4 8 7 11 9 6 5 4 5 6 6 17 35 39 43 41 36 37 37 29 15 18 22 16 12 14
32 31 31 30 28 27 26 25 28 32 33 22 11 5 5 9 5 6 6 5 7 2 1 2 3 3 9 4 5 4 7 3 6 4 3 4 2 4 16 28 35 17 5 16 29 27 26 24 18 22 21 21 12 19
31 30 28 26 25 24 23 25 30 32 26 14 7 4 5 5 3 5 5 2 0 3 3 2 4 3 5 4 3 6 3 4 3 2 9 2 3 27 47 24 20 13 5 12 12 8 11 7 13 17 26 27 18 27
29 26 24 23 22 21 23 28 31 32 17 9 5 5 7 2 2 3 2 1 1 2 3 5 6 4 3 2 3 4 2 3 3 3 5 5 9 23 47 46 29 26 29 28 19 21 20 20 11 25 28 27 22 25
27 24 21 21 18 20 25 27 28 27 14 11 8 7 7 6 5 4 4 1 0 3 3 3 4 6 5 4 3 2 2 2 5 9 5 4 12 40 47 52 52 44 42 33 26 26 21 19 20 23 26 35 34 30
25 20 18 18 18 20 22 23 26 24 14 10 8 5 7 9 7 7 9 4 5 10 7 16 3 4 3 3 4 3 7 6 6 5 4 6 25 31 38 44 49 51 58 49 44 37 41 37 32 29 30 31 31 33
21 14 16 16 17 18 22 19 24 21 9 6 7 8 5 5 5 2 6 6 10 12 21 12 5 4 5 4 4 6 5 4 4 4 5 9 28 27 28 28 42 47 47 52 54 50 47 40 39 42 46 44 41 39
15 10 14 15 18 17 16 15 17 20 8 7 8 6 5 9 11 14 13 11 13 10 11 5 3 5 5 4 4 5 6 6 5 5 5 22 22 23 29 30 29 31 39 43 40 40 39 39 37 36 36 37 36 34
12 7 10 13 17 15 11 13 14 12 7 7 9 5 11 6 17 19 20 21 20 6 4 7 6 5 8 4 7 7 5 6 6 7 21 19 21 26 30 32 34 33 31 29 29 31 30 33 34 36 37 36 33 32
12 9 8 9 11 18 11 9 10 10 8 6 5 12 8 6 10 18 20 23 21 11 3 5 6 5 4 5 7 5 5 5 15 16 15 16 19 23 25 27 30 32 33 34 34 34 34 33 32 32 32 28 26 27
12 9 9 7 5 9 14 14 6 7 6 5 5 10 13 17 14 16 21 31 16 9 8 5 6 7 4 4 5 7 10 16 10 10 11 13 16 20 23 25 26 28 29 29 29 28 29 30 30 27 24 24 25 26
9 10 10 8 6 6 4 5 5 4 4 2 5 8 11 11 20 21 22 23 24 19 5 6 6 4 4 4 7 14 14 11 9 10 10 12 15 18 20 22 23 24 25 25 25 25 24 23 23 21 19 18 21 21
7 8 11 12 10 3 3 3 3 4 3 5 6 5 7 10 18 17 20 20 16 9 9 4 3 2 3 5 9 15 17 17 7 7 10 12 14 17 19 20 19 19 20 21 21 20 18 17 16 16 15 15 17 18
5 6 7 8 6 6 3 3 2 2 4 4 6 3 2 4 7 14 15 13 13 6 5 3 3 6 7 8 10 14 17 17 15 10 7 7 10 12 14 15 15 16 17 17 17 16 14 12 11 10 10 12 15 17
4 4 4 4 3 2 3 5 2 1 1 1 1 1 1 2 3 4 8 10 6 4 1 4 4 4 5 9 11 14 15 15 12 9 8 8 10 12 12 13 13 14 14 15 13 12 12 10 8 8 11 13 14 15
3 3 2 3 2 2 1 4 2 2 1 1 1 1 2 2 2 3 3 3 3 6 0 3 3 1 3 5 8 11 13 15 15 11 8 9 9 10 9 11 11 11 13 16 15 14 14 13 13 12 11 11 10 10
2 2 2 3 4 2 2 2 3 2 1 1 1 1 2 3 3 3 1 2 4 6 6 4 6 5 5 4 7 10 12 13 13 12 11 8 8 9 10 11 11 9 10 11 11 11 11 11 11 10 10 10 10 10
2 3 3 3 3 2 3 3 3 2 2 1 1 1 2 3 1 1 1 2 5 9 10 10 10 8 6 5 6 7 9 11 12 11 13 12 10 9 9 8 8 8 5 6 6 8 8 9 9 10 9 9 9 10
3 2 2 1 1 1 1 2 2 2 1 1 1 1 1 1 1 2 1 2 4 9 11 12 12 10 7 5 4 5 7 11 13 9 10 8 7 6 8 9 9 6 7 5 3 5 7 8 10 10 10 8 8 9
2 1 0 1 0 1 0 1 1 2 2 1 2 2 1 2 2 2 3 2 5 8 11 11 11 10 7 7 6 7 10 13 14 9 4 2 4 5 5 7 7 6 6 3 2 3 6 7 7 8 8 7 7 8
1 3 2 2 1 2 1 1 2 2 2 3 3 3 2 3 2 4 4 2 3 8 7 7 9 10 8 7 7 8 9 12 14 9 4 4 6 9 10 8 5 4 1 2 3 6 5 5 5 6 6 7 8 8
4 4 5 3 3 4 5 5 4 5 4 6 3 3 3 5 6 8 9 8 6 6 6 5 7 9 8 6 6 9 9 8 10 10 9 7 8 11 14 12 10 4 3 2 6 5 3 4 5 6 7 7 6 5
4 8 4 3 3 4 4 8 5 8 8 9 5 4 5 7 9 9 10 10 9 6 5 5 5 6 7 7 7 10 8 5 7 7 7 8 8 11 14 13 11 10 6 3 3 2 3 4 7 7 7 7 6 5
3 7 3 4 4 4 7 9 9 9 9 8 11 10 9 7 10 10 12 12 11 8 4 4 4 4 6 7 8 9 7 5 4 6 7 7 9 12 12 12 13 10 7 5 3 3 4 6 7 7 7 7 7 7
5 6 4 3 3 5 4 3 3 4 4 6 6 10 9 6 4 4 5 5 7 7 3 3 2 3 6 8 9 11 8 5 5 5 7 8 10 13 15 12 10 10 7 6 5 5 6 6 6 7 8 8 7 8
3 4 5 3 2 2 4 4 2 2 3 3 3 4 6 4 3 3 3 2 3 4 2 2 0 3 6 7 9 12 8 7 6 6 8 11 12 12 13 12 10 9 7 6 6 6 6 6 7 8 9 9 8 9

GFSWCAN_850_spd_036.txt.gz
Wind_Speed
24 25 26 28 29 30 30 31 32 32 32 31 31 30 29 25 25 19 24 21 21 11 23 22 19 16 13 12 8 5 7 4 5 5 4 4 7 3 7 12 6 10 11 12 15 18 24 11 12 13 9 13 10 12
25 27 29 30 31 33 34 33 32 32 33 31 31 31 28 29 23 15 20 19 13 23 14 18 21 23 22 22 18 6 9 9 2 3 2 3 5 4 9 10 8 14 13 11 12 12 10 10 12 16 19 22 22 24
28 30 31 32 32 32 34 34 32 32 31 30 30 29 31 26 15 12 15 12 11 13 22 15 6 7 12 17 19 17 10 13 16 11 5 3 7 9 10 11 16 18 19 14 17 20 24 28 24 28 24 26 26 26
29 31 32 33 34 34 33 32 30 30 29 29 29 32 31 16 13 9 9 9 11 4 4 3 4 8 11 12 17 22 21 5 8 7 5 4 6 11 9 13 14 14 13 17 21 22 27 31 28 30 34 30 33 33
30 32 33 34 35 33 31 29 28 28 27 28 31 32 19 9 7 3 3 5 7 8 3 11 17 2 5 8 14 18 22 23 18 5 5 4 5 8 13 14 19 22 24 18 20 25 24 23 24 26 33 35 29 29
32 33 33 34 33 29 27 26 27 25 26 31 33 17 7 9 5 3 4 5 8 5 4 3 6 2 4 6 11 17 21 22 19 7 6 8 16 4 4 7 19 29 34 38 26 38 39 36 30 26 26 27 32 29
32 33 32 31 28 26 25 24 22 25 30 32 18 9 11 7 8 4 2 4 6 1 2 4 4 2 5 6 6 14 16 11 9 4 5 5 3 11 4 14 32 38 38 40 43 38 37 35 33 31 28 30 30 32
32 32 30 26 24 23 22 21 25 28 28 18 8 7 13 13 13 10 6 4 2 2 2 3 4 3 2 5 4 8 4 8 5 4 5 4 3 4 5 20 39 46 47 40 44 48 41 32 28 24 28 28 28 27
29 30 26 23 21 21 21 25 27 25 20 10 6 5 8 9 5 5 6 7 1 2 2 2 3 3 10 5 4 4 7 3 4 2 3 4 2 3 20 29 25 17 13 9 7 34 29 30 29 29 29 28 23 29
27 27 23 21 20 20 25 26 24 24 11 6 6 3 4 5 4 6 4 4 3 3 2 2 3 3 5 5 3 7 3 3 2 2 4 2 6 28 52 50 43 34 15 7 15 17 22 24 25 23 23 14 8 13
25 23 19 19 19 24 25 23 25 19 7 5 2 3 5 4 1 4 4 5 4 3 2 3 4 4 3 3 3 3 1 2 4 5 7 6 11 27 48 54 49 43 40 38 28 18 12 13 11 3 16 15 24 26
23 18 17 18 21 22 22 25 26 15 6 5 6 8 5 5 3 5 5 4 2 4 5 4 4 4 5 4 3 3 3 1 6 9 5 6 13 38 42 45 56 46 50 46 42 34 49 38 8 10 19 33 31 30
19 13 16 18 20 21 24 24 22 12 10 9 6 4 5 7 7 6 8 4 7 10 8 18 6 3 2 3 4 4 8 6 4 5 4 7 28 35 33 36 41 56 57 55 53 59 56 57 43 45 40 35 34 36
14 11 14 17 19 20 24 22 23 14 11 5 6 7 6 5 7 4 9 9 12 16 20 15 12 4 4 3 3 5 3 5 6 4 6 10 31 33 33 32 32 33 42 44 49 47 43 41 40 40 41 40 40 40
11 8 12 16 18 16 16 17 18 16 6 6 6 6 6 7 9 11 13 13 14 14 13 9 3 11 7 4 5 6 5 5 5 4 7 23 26 25 26 28 30 33 35 35 37 35 33 37 35 33 32 31 30 31
9 5 9 10 16 16 11 14 11 9 7 7 9 6 12 11 16 18 19 18 19 13 6 4 5 4 8 4 7 7 5 5 4 8 14 18 21 21 22 23 30 31 33 34 34 36 35 31 29 31 32 30 31 26
10 8 8 6 7 14 15 5 8 8 7 5 6 11 11 11 16 19 21 21 16 17 5 4 6 4 4 4 4 3 6 8 14 12 11 14 15 16 17 21 24 26 29 30 29 29 28 28 29 31 32 28 28 26
10 10 10 8 7 5 15 10 5 6 5 5 7 9 11 14 17 19 20 22 14 11 12 5 5 8 5 5 6 9 14 14 10 10 10 11 12 13 14 18 21 22 23 23 23 23 24 24 23 22 20 18 19 19
6 8 10 12 5 4 3 5 4 3 3 2 3 6 7 12 14 16 17 17 15 13 4 5 5 6 6 9 12 14 15 15 14 10 7 9 12 14 16 16 17 19 19 19 20 18 17 18 18 17 15 16 17 17
5 5 8 9 6 3 2 3 3 2 1 2 0 3 4 8 11 13 17 18 15 14 8 4 8 9 10 11 12 13 14 15 14 10 8 9 10 11 14 14 16 17 18 18 16 17 14 13 14 14 15 16 15 16
4 5 6 5 3 4 3 1 2 2 0 2 2 4 3 4 8 11 15 13 15 14 9 7 7 6 5 6 9 12 13 13 12 10 10 9 8 8 10 13 14 14 15 16 16 16 14 13 11 11 11 12 12 13
4 4 2 3 2 2 3 2 1 1 1 2 1 3 3 4 6 6 6 9 8 8 5 4 4 5 5 6 8 10 11 11 10 8 8 8 9 10 11 12 13 13 14 15 14 13 12 11 11 10 10 10 11 11
2 2 2 3 1 1 2 1 1 0 2 2 2 2 2 2 3 2 2 4 4 6 5 3 4 5 4 5 6 8 12 13 12 11 10 9 8 8 10 10 10 9 10 11 11 10 10 10 10 9 9 9 9 9
2 2 1 1 2 1 1 1 1 1 1 1 2 2 2 4 2 1 2 3 5 5 5 6 5 6 7 5 6 9 11 13 13 11 11 10 9 9 8 8 8 8 7 8 8 8 8 9 10 10 10 9 9 9
1 2 1 1 1 1 1 1 2 2 2 1 2 0 1 2 2 0 3 3 3 5 6 6 6 6 7 7 6 8 8 12 14 12 10 10 9 8 7 7 7 6 6 6 5 6 8 9 10 10 10 9 8 9
2 0 0 1 1 2 2 2 2 2 3 1 0 0 2 2 2 1 2 2 1 3 5 7 9 8 5 5 7 7 9 11 11 10 9 8 8 8 9 9 8 6 8 6 5 5 7 8 8 8 7 6 9 9
1 2 2 2 1 1 2 3 3 4 3 2 1 2 2 2 2 2 3 3 2 2 3 1 4 6 6 4 3 4 6 8 8 6 4 5 7 8 8 9 8 8 6 5 5 6 8 8 7 7 7 7 7 8
1 3 3 3 3 4 3 3 3 3 3 2 2 3 2 2 2 3 4 6 5 4 4 3 1 2 3 2 2 4 5 6 7 8 6 5 6 8 10 9 8 6 3 3 4 6 6 6 6 7 8 8 7 6
4 4 5 6 6 5 4 4 3 3 3 5 4 3 3 3 2 2 3 4 4 4 4 4 2 1 1 2 2 4 5 5 5 6 7 6 7 9 10 9 9 7 4 3 7 4 4 5 6 7 7 7 6 5
3 6 4 4 4 3 3 5 6 5 6 6 5 4 4 4 4 4 5 6 6 5 4 4 3 1 3 5 6 6 6 4 3 4 6 6 7 8 9 9 9 7 6 5 5 5 6 7 7 8 7 7 6 6
3 4 4 5 4 5 4 5 5 5 5 5 7 8 8 5 5 5 7 6 4 5 4 2 1 1 3 5 7 7 7 4 4 3 3 4 6 8 9 8 8 8 7 6 5 5 6 7 6 7 7 8 7 7
4 5 4 4 5 4 5 3 3 4 3 3 4 3 3 3 2 1 2 2 2 3 4 2 2 1 2 4 6 7 8 3 3 4 4 6 7 9 10 9 7 6 6 6 5 6 6 6 5 6 7 8 8 8
4 6 6 6 4 3 2 3 3 3 3 3 2 1 1 2 3 1 2 1 3 1 1 1 2 2 2 3 5 7 7 4 3 4 6 7 8 11 8 7 7 6 6 6 6 6 6 6 6 6 7 8 8 7